Wind_Gust
7 7 7 7 7 6 6 9 9 8 9 9 9 10 10 11 11 11 11 11 10 10 11 11 9 11 14 13 14 14 14 16 17 16 16 16 17 19 21 19 19 19
8 6 6 5 6 7 7 5 7 7 8 8 9 10 11 11 12 11 12 12 12 11 11 10 11 13 14 14 14 14 15 16 18 15 16 16 17 18 19 19 19 19
7 6 6 7 7 7 8 8 6 7 8 9 9 10 12 11 12 13 13 12 12 12 11 11 10 11 12 14 14 14 15 16 17 15 16 17 18 17 17 18 18 18
7 7 8 8 8 8 8 9 9 10 11 13 13 13 12 12 12 13 13 14 13 14 13 12 11 11 12 14 14 14 15 16 16 14 15 14 14 16 16 15 16 18
8 10 10 10 10 10 9 10 10 11 11 12 12 13 14 15 14 14 14 15 14 13 13 12 10 11 11 11 12 14 15 15 14 13 13 15 15 15 17 18 18 19
10 9 10 10 9 10 12 11 10 11 11 11 13 12 12 12 12 12 13 15 15 14 13 11 10 10 10 11 11 11 13 13 14 15 16 17 16 15 15 14 16 18
10 10 10 10 11 11 10 9 9 10 10 10 10 11 12 13 13 12 13 14 15 14 13 13 12 12 12 11 11 12 13 13 14 14 14 16 14 15 14 15 17 18
10 8 10 11 10 10 10 9 9 11 9 10 10 11 10 12 13 13 13 15 15 16 15 15 14 13 13 13 13 13 13 13 12 13 15 16 15 16 15 15 15 17
10 11 11 10 10 10 10 10 10 10 11 12 12 13 12 13 15 15 15 15 15 16 16 16 16 15 15 15 17 17 15 13 13 13 14 15 15 15 16 15 15 16
12 11 11 11 11 10 10 10 13 12 13 14 14 13 15 15 15 16 16 17 17 18 18 17 18 18 15 16 16 16 17 17 17 15 14 15 16 16 15 15 16 16
11 10 12 12 12 11 11 12 13 15 15 16 15 16 16 16 16 17 17 17 19 19 19 18 18 19 17 18 17 17 16 17 18 18 18 17 16 15 14 15 15 17
10 10 12 12 11 11 11 13 14 14 14 15 17 18 16 19 19 17 18 17 18 18 18 18 19 19 18 16 17 18 18 18 18 19 20 20 18 15 14 14 15 15
10 10 12 11 11 12 12 14 14 14 15 16 18 17 18 18 19 17 17 16 18 18 18 19 19 18 18 16 16 17 19 19 19 19 19 20 19 17 14 13 14 14
10 10 12 12 11 12 12 12 13 15 15 15 14 14 14 16 16 17 16 16 17 17 18 19 19 18 17 16 17 20 20 20 21 21 20 20 20 19 14 13 13 13
12 12 12 12 12 13 13 13 13 13 13 15 15 16 16 17 16 16 17 18 17 18 18 17 17 18 15 19 23 24 20 20 21 21 22 21 20 20 15 12 12 12
14 12 11 11 13 14 13 13 13 13 13 14 14 14 14 17 16 17 18 18 19 19 18 17 17 15 21 32 26 23 20 17 19 20 20 19 20 20 16 12 12 11
12 11 10 12 12 13 13 13 13 13 13 14 14 15 15 17 18 19 19 19 18 20 20 18 17 18 28 27 26 22 18 15 16 18 19 19 18 18 16 11 9 9
11 10 11 11 11 13 13 12 11 12 13 13 15 16 18 17 19 20 19 19 18 19 18 19 17 21 28 26 24 20 14 14 14 16 17 17 16 15 16 15 14 12
8 12 13 14 13 12 12 12 12 12 14 15 17 16 15 17 19 20 20 20 20 20 20 20 18 23 29 26 24 21 15 12 12 15 16 14 17 18 18 18 18 17
11 10 12 13 13 13 13 13 14 14 13 13 14 15 17 17 19 20 19 20 21 20 19 19 19 28 28 27 25 22 19 14 16 16 16 17 18 18 18 19 19 18
12 11 11 10 12 12 13 14 14 13 15 14 14 15 17 18 19 19 19 19 20 21 19 19 25 32 30 29 28 24 22 15 18 17 17 16 16 18 19 19 19 19
11 11 11 10 11 12 13 14 14 15 16 15 14 14 14 14 16 16 19 20 20 22 21 23 27 33 31 29 27 24 18 19 18 18 17 18 19 18 18 17 18 20
11 11 11 11 11 13 14 14 14 15 14 13 14 14 15 16 16 17 17 20 22 24 24 23 26 32 31 30 29 27 16 19 18 18 19 19 20 18 17 17 21 23
11 11 11 11 12 13 12 13 13 12 14 13 14 14 16 15 14 16 18 20 22 24 25 22 26 31 33 31 30 29 20 20 19 19 19 20 19 20 19 20 25 35
11 11 11 11 12 12 12 12 13 13 11 11 13 13 14 12 14 16 17 20 20 20 24 27 26 28 32 32 33 32 26 21 21 20 22 22 20 20 20 22 23 22
11 13 12 12 11 11 12 11 9 12 13 12 13 13 13 14 15 16 18 19 19 22 25 26 26 26 32 33 33 32 28 22 21 22 23 21 21 22 23 22 22 23
Wind_Speed
4 3 4 4 4 4 4 4 4 4 4 4 5 5 5 6 6 6 7 7 6 6 6 5 4 5 5 5 5 6 6 7 7 7 7 7 8 9 10 10 10 9
4 4 3 3 4 4 4 3 4 4 5 4 5 5 5 5 6 6 7 7 7 7 6 5 5 5 5 5 5 6 6 6 8 6 8 9 9 9 10 11 11 10
4 4 4 5 5 5 5 4 4 4 5 5 5 5 6 5 7 7 7 7 7 7 7 6 6 5 5 5 6 6 6 7 8 7 7 8 8 8 8 9 10 11
5 5 5 5 5 5 5 5 6 6 5 6 7 6 6 6 7 7 7 8 8 8 8 7 6 6 5 5 6 7 7 8 8 8 9 8 7 8 9 8 8 9
5 6 6 6 6 6 6 6 6 6 6 5 5 6 7 8 8 8 8 8 8 8 8 7 6 6 6 6 6 7 7 6 7 7 7 8 8 8 8 9 9 11
7 6 6 6 6 6 7 6 6 6 7 7 8 6 7 7 7 7 8 9 8 8 8 6 6 6 5 6 6 6 7 7 7 7 8 9 9 8 8 8 9 10
6 6 7 6 6 6 6 5 6 6 6 6 6 7 7 7 8 7 8 8 9 8 8 8 7 7 7 6 7 7 7 7 7 8 8 8 8 9 8 8 9 10
6 5 5 6 6 6 6 6 5 5 5 5 6 6 6 7 8 7 7 8 8 9 9 9 9 8 8 7 7 7 8 7 7 8 8 9 9 9 8 8 8 10
6 6 6 5 6 5 6 6 6 6 6 7 7 7 7 8 9 9 9 9 9 9 10 9 10 9 8 9 10 10 9 8 7 7 8 8 9 9 9 8 8 8
6 5 6 6 6 5 5 6 6 6 7 8 8 7 8 8 8 9 9 10 9 10 10 10 10 10 8 7 7 8 9 10 10 9 8 8 9 9 9 8 8 8
6 5 5 5 5 5 7 7 7 7 7 8 7 7 8 7 8 8 8 9 9 10 10 10 10 10 9 8 7 7 9 9 10 10 10 10 10 9 10 9 8 8
5 5 5 5 5 5 6 6 6 7 7 6 7 8 7 7 8 7 8 9 9 9 9 10 10 10 10 9 8 9 9 9 9 10 10 10 11 9 9 8 8 8
5 5 5 5 5 5 4 5 6 6 6 7 7 7 7 7 8 9 8 8 9 9 9 10 10 10 10 9 9 9 10 10 10 10 11 10 10 10 8 8 8 8
5 5 5 5 4 4 4 4 4 4 5 5 6 7 8 9 9 9 8 9 9 9 9 9 9 9 9 9 9 11 11 11 10 10 11 11 12 12 9 8 8 8
4 4 4 4 5 5 5 5 5 4 5 5 6 7 7 8 9 9 9 10 10 10 10 9 8 8 6 8 12 13 10 11 10 10 10 10 11 11 9 7 7 7
4 4 4 4 5 6 6 6 5 5 6 6 7 7 8 9 9 9 9 10 10 11 10 8 7 6 13 25 20 12 10 8 8 9 9 9 10 11 10 7 7 6
5 5 5 6 6 6 6 7 7 6 6 6 7 8 8 9 9 10 10 9 9 10 11 9 8 8 23 21 21 18 9 7 7 7 8 9 9 10 9 7 6 5
5 5 6 6 6 7 7 7 7 6 6 7 8 9 9 8 9 10 9 10 8 10 9 10 9 16 21 20 19 17 6 4 4 5 7 7 7 9 9 9 8 7
4 5 5 6 5 5 5 6 7 7 7 7 9 8 8 9 9 10 10 10 10 11 11 11 10 18 20 20 19 18 12 2 2 5 7 7 9 9 10 10 10 10
5 4 5 5 5 5 6 7 8 8 8 7 7 8 8 9 9 10 9 10 10 10 9 9 10 19 21 21 20 18 16 11 9 8 8 9 10 10 10 10 10 10
5 5 5 5 5 5 6 7 7 7 8 7 7 8 8 8 9 10 9 10 11 10 9 10 12 22 21 21 20 19 16 11 9 9 9 8 8 9 11 11 11 10
4 5 5 5 6 6 7 8 7 8 8 7 7 7 7 8 8 8 10 10 10 10 9 12 13 22 21 22 21 19 15 10 9 10 9 10 10 10 10 9 10 11
5 5 5 6 6 7 7 7 7 8 8 6 7 8 8 9 8 8 8 9 10 10 11 10 12 20 22 22 21 20 12 9 10 9 10 10 11 9 9 10 12 13
5 5 6 6 6 7 6 6 6 6 7 6 7 8 9 8 7 8 8 8 10 12 11 10 11 18 23 22 21 21 15 11 10 10 11 11 10 11 10 10 15 26
5 6 6 6 6 6 5 6 7 6 5 6 7 7 7 6 7 7 7 8 9 9 14 13 11 15 22 22 22 21 14 10 9 9 12 12 10 11 11 11 12 15
5 6 6 5 5 5 6 6 4 6 7 7 7 6 6 6 6 6 7 8 8 9 10 11 12 12 17 22 22 22 19 11 10 11 11 10 11 10 11 12 12 11
Wind_Direction
41 49 39 26 16 11 358 352 346 335 335 340 340 323 319 310 317 326 325 323 313 295 285 277 275 268 259 255 250 253 250 251 255 260 263 261 260 262 263 260 251 247
26 30 30 21 10 2 355 355 349 354 343 340 337 326 323 330 333 335 334 332 327 312 298 289 280 268 269 266 260 256 255 253 258 257 261 261 260 256 256 257 256 250
15 12 16 21 4 355 355 357 9 2 357 342 339 346 338 341 336 336 336 334 331 325 323 311 297 282 271 267 266 264 265 265 264 263 260 264 266 263 265 265 263 260
9 14 13 15 19 19 15 21 14 3 355 360 354 342 343 337 339 336 336 336 333 330 324 320 307 297 286 275 268 263 259 259 260 263 262 262 261 265 267 265 263 263
16 17 26 34 32 32 29 25 9 358 353 345 339 348 347 346 343 342 339 333 331 324 322 318 315 302 293 285 272 266 262 261 260 259 264 269 269 265 263 259 260 261
28 35 41 37 32 29 26 21 2 357 350 352 350 342 345 341 341 340 338 333 327 320 314 317 324 317 305 293 285 273 269 266 262 257 258 262 265 259 258 256 256 257
37 41 36 31 31 26 25 12 4 358 351 346 342 347 341 344 343 346 342 332 325 319 323 332 331 331 327 311 294 283 272 267 267 263 258 263 265 266 260 256 256 258
43 37 33 26 29 20 18 6 360 351 344 349 351 343 343 342 347 348 337 333 330 333 336 334 333 331 324 312 306 293 282 272 269 264 266 266 263 264 263 256 253 255
47 37 27 24 24 17 13 9 5 358 358 358 356 353 352 355 351 348 340 341 338 339 337 333 330 331 331 346 341 329 316 300 281 275 274 275 272 268 265 264 262 259
47 33 30 21 19 3 11 10 5 2 9 10 5 1 357 354 355 350 348 348 344 342 337 332 331 326 328 347 338 331 331 326 320 307 290 278 274 270 266 263 266 265
43 31 26 14 12 10 17 12 6 3 10 10 2 358 353 349 355 352 355 353 348 342 335 332 330 323 323 331 334 330 326 323 318 313 304 295 284 274 268 264 261 259
44 29 15 14 16 16 14 9 5 6 1 355 357 350 349 352 349 348 351 347 344 339 335 329 326 323 320 322 321 324 323 319 315 309 303 300 292 280 274 266 263 262
35 16 9 14 13 11 9 6 4 2 0 357 355 351 348 351 350 350 348 344 341 335 333 330 328 325 320 317 320 323 319 312 308 306 301 298 295 285 276 270 267 264
16 6 3 7 8 3 2 360 357 356 358 355 352 355 357 360 352 349 345 343 339 335 333 331 327 323 318 316 319 315 309 300 294 295 298 296 294 289 277 273 269 267
6 0 4 6 4 0 357 356 357 356 359 360 2 2 6 4 356 353 351 347 344 341 336 332 326 320 315 326 319 308 295 287 285 287 288 288 289 288 282 272 271 265
4 4 6 12 12 6 358 351 352 358 5 8 10 10 10 7 0 1 359 353 347 344 342 337 327 314 329 323 310 293 287 281 281 279 280 285 289 291 286 278 273 271
20 18 16 23 15 9 3 358 352 354 4 12 15 16 14 7 3 4 2 355 351 348 344 343 333 332 331 321 316 309 289 262 261 273 282 289 289 284 285 291 292 288
23 25 27 24 19 13 7 359 354 354 5 15 19 21 17 8 6 2 0 357 353 352 351 348 339 340 334 332 333 343 324 259 269 274 285 298 321 345 352 345 335 319
15 26 28 24 16 11 7 8 6 6 7 14 22 22 16 13 4 2 2 359 359 357 353 351 344 345 343 347 351 356 0 272 289 356 8 14 14 12 4 353 345 339
18 19 25 19 11 11 14 17 15 11 7 6 15 19 21 18 9 8 3 4 2 359 352 353 356 351 354 358 359 360 5 11 31 26 21 23 23 16 10 1 351 339
23 27 25 17 16 16 20 23 17 11 12 6 12 18 19 17 12 9 9 9 9 7 6 7 7 360 3 5 4 2 6 19 24 28 27 24 21 19 17 9 358 350
27 29 26 20 18 21 27 22 18 13 13 6 16 19 22 20 18 14 11 11 9 9 12 16 12 8 8 11 10 5 9 24 22 25 26 26 24 16 13 6 7 6
27 31 29 25 18 26 25 22 18 12 13 7 20 24 23 22 18 15 10 11 11 14 14 14 18 12 13 15 15 11 17 24 23 26 27 27 24 15 13 13 19 17
31 33 33 27 27 26 20 18 16 18 18 9 26 27 27 20 14 14 13 12 16 19 14 12 17 14 15 16 19 18 23 24 22 28 29 27 23 22 19 20 22 26
35 37 34 31 30 22 21 25 21 19 5 15 26 30 33 20 15 14 8 13 13 15 18 21 17 16 15 15 19 20 24 29 26 33 34 26 23 22 23 26 23 22
34 37 35 33 26 24 25 29 17 25 20 23 23 23 25 20 14 10 15 14 5 11 19 19 18 17 15 14 20 20 19 31 30 36 29 23 26 26 26 28 27 25